TimeCDT,TemperatureF,Dew PointF,Humidity,Sea Level PressureIn,VisibilityMPH,Wind Direction,Wind SpeedMPH,Gust SpeedMPH,PrecipitationIn,Events,Conditions,WindDirDegrees,DateUTC
12:53 AM,55.9,54.0,93,29.87,10.0,NNW,4.6,-,N/A,,Clear,340,2013-08-07 05:53:00
1:53 AM,51.1,51.1,100,29.90,10.0,NNW,4.6,-,N/A,,Clear,330,2013-08-07 06:53:00
2:53 AM,48.9,48.9,100,29.92,8.0,NW,4.6,-,N/A,,Clear,320,2013-08-07 07:53:00
3:53 AM,50.0,50.0,100,29.92,10.0,NNW,8.1,-,N/A,,Clear,330,2013-08-07 08:53:00
4:53 AM,48.9,48.9,100,29.94,10.0,NW,6.9,-,N/A,,Clear,320,2013-08-07 09:53:00
5:46 AM,46.4,46.4,100,29.94,1.8,NW,4.6,-,N/A,,Scattered Clouds,320,2013-08-07 10:46:00
5:53 AM,46.0,46.0,100,29.95,1.8,Calm,Calm,-,N/A,,Mostly Cloudy,0,2013-08-07 10:53:00
6:01 AM,46.4,46.4,100,29.95,2.5,Calm,Calm,-,N/A,,Mostly Cloudy,0,2013-08-07 11:01:00
6:17 AM,46.4,44.6,93,29.95,1.0,Calm,Calm,-,N/A,,Scattered Clouds,0,2013-08-07 11:17:00
6:20 AM,46.4,44.6,93,29.96,0.8,Calm,Calm,-,N/A,,Mist,0,2013-08-07 11:20:00
6:30 AM,46.4,46.4,100,29.95,1.2,Calm,Calm,-,N/A,,Partly Cloudy,0,2013-08-07 11:30:00
6:34 AM,48.2,46.4,93,29.95,3.0,Calm,Calm,-,N/A,,Partly Cloudy,0,2013-08-07 11:34:00
6:53 AM,48.0,46.9,96,29.97,10.0,Calm,Calm,-,N/A,,Clear,0,2013-08-07 11:53:00
7:53 AM,55.0,51.1,86,29.97,10.0,North,8.1,-,N/A,,Clear,360,2013-08-07 12:53:00
8:53 AM,59.0,50.0,72,29.99,10.0,NNW,8.1,-,N/A,,Clear,330,2013-08-07 13:53:00
9:53 AM,62.1,43.0,50,30.00,9.0,North,10.4,-,N/A,,Clear,360,2013-08-07 14:53:00
10:53 AM,64.0,44.1,48,30.01,10.0,NNW,5.8,-,N/A,,Clear,330,2013-08-07 15:53:00
11:53 AM,66.9,44.1,44,30.01,10.0,North,9.2,-,N/A,,Clear,350,2013-08-07 16:53:00
12:53 PM,66.9,44.1,44,30.02,10.0,North,9.2,-,N/A,,Partly Cloudy,350,2013-08-07 17:53:00
1:53 PM,69.1,44.1,40,30.02,10.0,North,8.1,-,N/A,,Clear,350,2013-08-07 18:53:00
2:53 PM,70.0,46.0,42,30.02,10.0,NNW,10.4,-,N/A,,Mostly Cloudy,330,2013-08-07 19:53:00
3:53 PM,72.0,45.0,38,30.02,10.0,West,10.4,-,N/A,,Mostly Cloudy,280,2013-08-07 20:53:00
4:53 PM,69.1,45.0,42,30.01,10.0,NW,5.8,-,N/A,,Clear,310,2013-08-07 21:53:00
5:53 PM,71.1,45.0,39,30.01,10.0,NNW,8.1,-,N/A,,Partly Cloudy,340,2013-08-07 22:53:00
6:53 PM,70.0,46.0,42,30.01,10.0,West,10.4,-,N/A,,Clear,270,2013-08-07 23:53:00
7:53 PM,66.9,48.0,51,30.01,10.0,WNW,5.8,-,N/A,,Clear,290,2013-08-08 00:53:00
8:53 PM,64.0,52.0,65,30.01,10.0,Calm,Calm,-,N/A,,Overcast,0,2013-08-08 01:53:00
9:53 PM,63.0,51.1,65,30.02,10.0,NE,4.6,-,N/A,,Partly Cloudy,40,2013-08-08 02:53:00
10:53 PM,61.0,51.1,70,30.02,10.0,Calm,Calm,-,N/A,,Clear,0,2013-08-08 03:53:00
11:53 PM,57.0,51.1,81,30.02,10.0,Calm,Calm,-,N/A,,Clear,0,2013-08-08 04:53:00